[[{"header":{"parameterUnit":"m.s-1","parameterCategory":1,"la1":30.2991,"la2":30.254,"lo1":-89.0895,"lo2":-89.0444,"dy":0.0017,"dx":0.0017,"nx":28,"ny":28,"refTime":"2025-01-23T03:00:00:Z","depth":0,"parameterNumber":2,"parameterNumberName":"U-component_of_WINDS"},"data":[0,0,0,0,0,0,0,0,0,0,0,0,0,0,0,0,0,0,0,0,0,0,0,0,0,0,0,0,0,0,0,0,0,0,0,0,0,0,0,0,0,0,0,0,0,0,0,0,0,0,0,0,0,0,0,0,0,0,-0.9653,-0.9653,0,-0.9724,-0.9725,-0.9726,-0.9692,-0.969,-0.9688,-0.9686,-0.976,-0.9763,-0.9767,0,0,0,0,0,0,0,0,0,0,0,0,0,-0.9484,-0.9488,-0.9653,-0.9653,-0.9654,-0.9724,-0.9725,-0.9726,-0.9692,-0.969,-0.9688,-0.9685,-0.9759,-0.9763,-0.9767,0,0,0,0,0,0,0,0,0,0,0,0,0,-0.9557,-0.9489,-0.9652,-0.9646,-0.9646,-0.9724,-0.9725,-0.9726,-0.9692,-0.969,-0.9687,-0.9684,-0.9757,-0.9763,-0.9768,-0.9857,0,0,-0.9785,-0.9787,0,0,0,0,0,0,0,0,-0.9553,-0.9563,-0.9646,-0.9646,-0.9647,-0.9696,-0.9693,-0.977,-0.9693,-0.9675,-0.9686,-0.9683,-0.9741,-0.9748,-0.9767,-0.986,-0.9863,-0.9785,-0.9789,-0.9791,-0.9792,0,0,0,0,0,0,0,-0.9548,-0.956,-0.9681,-0.9647,-0.9648,-0.9639,-0.9646,-0.9707,-0.9722,-0.9676,-0.9674,-0.9683,-0.9741,-0.9762,-0.9768,-0.9864,-0.9785,-0.979,-0.9793,-0.9795,-1.0032,-1.0035,0,0,0,0,0,0,-0.9543,-0.9556,-0.9679,-0.9683,-0.9592,-0.9644,-0.9652,-0.9683,-0.9722,-0.9725,-0.9685,-0.9681,-0.9754,-0.9762,-0.9771,-0.9877,-0.9791,-0.9796,-0.9799,-1.0029,-1.0033,-1.0036,0,0,0,0,0,0,-0.954,-0.9554,-0.9676,-0.9619,-0.9634,-0.965,-0.9685,-0.9686,-0.9707,-0.9728,-0.9731,-0.9704,-0.9752,-0.9763,-0.9835,-0.9879,-0.9798,-0.9803,-1.0025,-1.003,-1.0034,-1.0089,0,0,0,0,0,0,-0.9535,-0.9553,-0.9588,-0.962,-0.9637,-0.974,-0.9688,-0.9689,-0.9717,-0.9712,-0.9747,-0.975,-0.9751,-0.9827,-0.9841,-0.9885,-0.9808,-1.0022,-1.0027,-1.0033,-1.0084,-1.0095,-1.0105,0,0,0,0,0,-0.9529,-0.9601,-0.959,-0.9605,-0.968,-0.9742,-0.9752,-0.9751,-0.972,-0.9755,-0.9768,-0.9749,-0.9871,-0.9835,-0.985,-0.9896,-1.0019,-1.0026,-1.0032,-1.0079,-1.0093,-1.0104,0,0,0,0,0,0,-0.9575,-0.9605,-0.9593,-0.9678,-0.9708,-0.9736,-0.978,-0.9766,-0.9806,-0.98,-0.9797,-0.9805,-0.9879,-0.9895,-0.9853,-0.9983,-0.994,-0.995,-0.9971,-0.9984,-0.9994,-0.9989,-0.9812,0,0,0,0,0,-0.9594,-0.9642,-0.9666,-0.9738,-0.9754,-0.9764,-0.9791,-0.9788,-0.9819,-0.9831,-0.985,-0.988,-0.9925,-0.9955,-0.9998,-1.0085,-1.0091,-1.0124,-1.0135,-1.0143,-1.0152,-1.0198,-1.0212,-1.0058,-1.0058,-1.0058,0,0,-0.9636,-0.9658,-0.9689,-0.9748,-0.9771,-0.982,-0.9775,-0.983,-0.9866,-0.984,-0.9909,-0.9923,-0.9956,-1.0036,-1.0072,-1.0051,-1.0196,-1.0152,-1.0158,-1.0163,-1.0206,-1.0221,-1.0234,-1.0062,-1.0062,-1.0061,0,0,-0.9737,-0.9759,-0.9821,-0.9844,-0.9879,-0.9885,-0.9899,-0.993,-0.9938,-1.0007,-0.9988,-1.003,-1.0109,-1.0133,-1.0156,-1.0263,-1.0246,-1.0277,-1.0332,-1.0377,-1.0389,-1.04,-1.0437,-1.0451,-1.0285,-1.0285,-1.0285,0,-0.9784,-0.9858,-0.9855,-0.991,-0.9936,-0.9913,-0.9975,-0.9998,-1.0045,-1.0063,-1.0039,-1.0135,-1.0156,-1.024,-1.0266,-1.0285,-1.0301,-1.0273,-1.0387,-1.0398,-1.0408,-1.0444,-1.0458,-1.0289,-1.0288,-1.0288,-1.0288,0,-0.9914,-0.9965,-1.0011,-1.0056,-1.0087,-1.0146,-1.015,-1.0182,-1.0175,-1.0183,-1.0252,-1.0276,-1.0323,-1.0342,-1.0337,-1.0425,-1.0411,-1.0387,-1.0345,-1.0426,-1.046,-1.0474,-1.0294,-1.0293,-1.0291,-1.0291,0,0,-1.0048,-1.0089,-1.0106,-1.0125,-1.016,-1.0199,-1.0256,-1.0301,-1.0328,-1.036,-1.0407,-1.0472,-1.0449,-1.0475,-1.0471,-1.051,-1.0592,-1.0481,-1.0482,-1.0501,-1.069,-1.0708,-1.0724,-1.0581,-1.0584,-1.0586,-1.0687,0,-1.0151,-1.0251,-1.0248,-1.034,-1.0387,-1.0364,-1.0413,-1.044,-1.0448,-1.0488,-1.0497,-1.0544,-1.0511,-1.0526,-1.0563,-1.0575,-1.063,-1.0567,-1.0624,-1.0626,-1.0617,-1.0742,-1.0762,-1.0857,-1.07,-1.0703,-1.0704,0,-1.0286,-1.0322,-1.0419,-1.0445,-1.0464,-1.0509,-1.0549,-1.0587,-1.0616,-1.0619,-1.0647,-1.0636,-1.0692,-1.0647,-1.0723,-1.068,-1.0703,-1.0712,-1.0715,-1.0721,-1.0671,-1.0751,-1.0887,-1.0901,-1.0725,-1.0723,-1.0722,0,-1.0373,-1.0446,-1.0513,-1.053,-1.0563,-1.0594,-1.0609,-1.0635,-1.0661,-1.0696,-1.0713,-1.0754,-1.0776,-1.0807,-1.0808,-1.0775,-1.0885,-1.084,-1.0889,-1.0889,-1.0914,-1.0912,-1.1055,-1.0928,-1.0928,-1.0927,-1.0927,0,-1.0489,-1.0549,-1.0552,-1.0594,-1.0659,-1.0655,-1.072,-1.0732,-1.0754,-1.0797,-1.0779,-1.082,-1.0817,-1.0857,-1.0857,-1.092,-1.0931,-1.0934,-1.0934,-1.0936,-1.0936,-1.0952,-1.0945,-1.0931,-1.093,-1.093,-1.0929,0,-1.0599,-1.0603,-1.0675,-1.0699,-1.0706,-1.0754,-1.0774,-1.0813,-1.0819,-1.0872,-1.0885,-1.0894,-1.094,-1.0943,-1.0996,-1.0996,-1.1073,-1.1065,-1.1063,-1.1062,-1.111,-1.1106,-1.1269,-1.129,-1.1149,-1.115,-1.1151,0,-1.0673,-1.0719,-1.0747,-1.0774,-1.0791,-1.0835,-1.0861,-1.0858,-1.0886,-1.0921,-1.0955,-1.0999,-1.1034,-1.1109,-1.112,-1.116,-1.1153,-1.1207,-1.1159,-1.1159,-1.1153,-1.1151,-1.1155,-1.1217,-1.1219,-1.122,-1.1221,0,-1.0804,-1.0803,-1.0842,-1.0882,-1.0914,-1.0945,-1.0974,-1.0996,-1.0996,-1.1028,-1.1075,-1.1102,-1.1156,-1.1199,-1.1238,-1.1252,-1.1237,-1.1236,-1.1249,-1.1252,-1.1249,-1.1251,-1.1089,-1.1232,-1.1231,-1.123,-1.123,-1.1229,-1.0898,-1.0937,-1.0963,-1.1006,-1.1027,-1.1054,-1.1091,-1.11,-1.1139,-1.1183,-1.1178,-1.1229,-1.1254,-1.1304,-1.1322,-1.1361,-1.1343,-1.1362,-1.1367,-1.1372,-1.1377,-1.1242,-1.1368,-1.1368,-1.1368,-1.1367,-1.1367,0,-1.1028,-1.1043,-1.1083,-1.1123,-1.1157,-1.1138,-1.1168,-1.1197,-1.1243,-1.1268,-1.1302,-1.1355,-1.1396,-1.141,-1.145,-1.1479,-1.1472,-1.149,-1.1488,-1.1491,-1.1392,-1.1376,-1.1494,-1.1494,-1.1494,-1.1494,-1.1494,-1.1494,-1.11,-1.1164,-1.1166,-1.1239,-1.1253,-1.1304,-1.1322,-1.1346,-1.1366,-1.1425,-1.146,-1.1468,-1.1488,-1.1529,-1.1565,-1.1568,-1.1584,-1.1604,-1.1604,-1.1511,-1.1498,-1.1486,-1.1471,-1.1607,-1.1608,-1.17,-1.17,-1.1701]},{"header":{"parameterUnit":"m.s-1","parameterCategory":1,"la1":30.2991,"la2":30.254,"lo1":-89.0895,"lo2":-89.0444,"dy":0.0017,"dx":0.0017,"nx":28,"ny":28,"refTime":"2025-01-23T03:00:00:Z","depth":0,"parameterNumber":3,"parameterNumberName":"V-component_of_WINDS"},"data":[0,0,0,0,0,0,0,0,0,0,0,0,0,0,0,0,0,0,0,0,0,0,0,0,0,0,0,0,0,0,0,0,0,0,0,0,0,0,0,0,0,0,0,0,0,0,0,0,0,0,0,0,0,0,0,0,0,0,-3.9921,-3.9922,0,-4.0013,-4.0014,-4.0015,-3.9947,-3.9944,-3.9941,-3.9938,-4.0028,-4.0033,-4.0038,0,0,0,0,0,0,0,0,0,0,0,0,0,-3.9682,-3.9687,-3.9921,-3.9923,-3.9924,-4.0013,-4.0014,-4.0016,-3.9948,-3.9944,-3.994,-3.9937,-4.0027,-4.0033,-4.0039,0,0,0,0,0,0,0,0,0,0,0,0,0,-3.9781,-3.9688,-3.9921,-3.9901,-3.99,-4.0013,-4.0014,-4.0016,-3.9948,-3.9944,-3.9939,-3.9935,-4.0025,-4.0032,-4.004,-4.0177,0,0,-4.0063,-4.0067,0,0,0,0,0,0,0,0,-3.9776,-3.979,-3.9902,-3.9902,-3.9901,-3.9964,-3.9963,-4.007,-3.9949,-3.993,-3.9938,-3.9933,-4.001,-4.0019,-4.0046,-4.0181,-4.0185,-4.0064,-4.0069,-4.0072,-4.0074,0,0,0,0,0,0,0,-3.9769,-3.9786,-3.9958,-3.9904,-3.9904,-3.9885,-3.9894,-3.9983,-3.9994,-3.9931,-3.9926,-3.9938,-4.0009,-4.0039,-4.0047,-4.0186,-4.0064,-4.0071,-4.0076,-4.0079,-4.0436,-4.0441,0,0,0,0,0,0,-3.9765,-3.978,-3.9955,-3.996,-3.9826,-3.9893,-3.9903,-3.9948,-3.9993,-3.9995,-3.9942,-3.9935,-4.0027,-4.0038,-4.005,-4.0212,-4.0072,-4.0079,-4.0084,-4.0432,-4.0437,-4.0443,0,0,0,0,0,0,-3.976,-3.9781,-3.9951,-3.9869,-3.9889,-3.9902,-3.9953,-3.9953,-3.9982,-4.0001,-4.0002,-3.9971,-4.0024,-4.0039,-4.0146,-4.0215,-4.0083,-4.009,-4.0426,-4.0433,-4.044,-4.0539,0,0,0,0,0,0,-3.9753,-3.9779,-3.9833,-3.9871,-3.9894,-4.0047,-3.9958,-3.9958,-3.9996,-3.9987,-4.0028,-4.003,-4.0022,-4.0135,-4.0153,-4.0223,-4.0096,-4.042,-4.0429,-4.0438,-4.0529,-4.0549,-4.0565,0,0,0,0,0,-3.9745,-3.9857,-3.9836,-3.9857,-3.9962,-4.0051,-4.0064,-4.0053,-4.0002,-4.0055,-4.0067,-4.0029,-4.0204,-4.0146,-4.0167,-4.024,-4.0415,-4.0427,-4.0437,-4.0521,-4.0545,-4.0564,0,0,0,0,0,0,-3.9825,-3.9861,-3.9839,-3.9967,-4.0006,-4.0039,-4.0106,-4.0079,-4.0133,-4.0122,-4.0105,-4.0115,-4.0226,-4.0243,-4.0178,-4.0374,-4.0301,-4.0317,-4.0358,-4.0381,-4.0398,-4.0391,-4.0102,0,0,0,0,0,-3.9858,-3.9929,-3.9956,-4.0066,-4.0087,-4.0094,-4.0132,-4.012,-4.016,-4.0176,-4.0196,-4.0235,-4.0298,-4.034,-4.04,-4.0532,-4.0538,-4.0592,-4.061,-4.0624,-4.0637,-4.0706,-4.073,-4.0479,-4.0478,-4.0478,0,0,-3.9926,-3.9955,-4.0,-4.0083,-4.0112,-4.0185,-4.0108,-4.0188,-4.0241,-4.0188,-4.0289,-4.0305,-4.0347,-4.0467,-4.052,-4.0484,-4.0708,-4.0638,-4.0649,-4.0655,-4.072,-4.0744,-4.0765,-4.0486,-4.0485,-4.0483,0,0,-4.0087,-4.0117,-4.0211,-4.0242,-4.0288,-4.0291,-4.0313,-4.0351,-4.0359,-4.0461,-4.0423,-4.0484,-4.0595,-4.0626,-4.0656,-4.0828,-4.0795,-4.0848,-4.094,-4.1008,-4.1027,-4.1045,-4.1105,-4.1126,-4.0861,-4.0862,-4.0862,0,-4.0165,-4.0274,-4.0262,-4.0345,-4.0382,-4.0338,-4.0432,-4.0463,-4.0525,-4.0551,-4.051,-4.0647,-4.0672,-4.0797,-4.0839,-4.0866,-4.0889,-4.0843,-4.1026,-4.1043,-4.1059,-4.1116,-4.1139,-4.0868,-4.0867,-4.0866,-4.0866,0,-4.0368,-4.0444,-4.0514,-4.0576,-4.0621,-4.0709,-4.0709,-4.0755,-4.0739,-4.0746,-4.0849,-4.0878,-4.0942,-4.0971,-4.0956,-4.1094,-4.107,-4.1028,-4.0955,-4.109,-4.1142,-4.1164,-4.0876,-4.0874,-4.0872,-4.0871,0,0,-4.0582,-4.0636,-4.0662,-4.0689,-4.0736,-4.0794,-4.0879,-4.0943,-4.0982,-4.1026,-4.1096,-4.119,-4.1151,-4.1186,-4.1174,-4.1233,-4.1366,-4.1184,-4.1184,-4.1215,-4.1517,-4.1547,-4.1573,-4.1344,-4.1348,-4.1351,-4.1513,0,-4.0744,-4.0894,-4.0885,-4.1025,-4.1094,-4.1053,-4.1127,-4.1163,-4.1171,-4.123,-4.1238,-4.1305,-4.1249,-4.1269,-4.1327,-4.1338,-4.1426,-4.1326,-4.1407,-4.141,-4.1397,-4.1601,-4.1633,-4.1784,-4.1533,-4.1537,-4.154,0,-4.0953,-4.1006,-4.1153,-4.1189,-4.1217,-4.1284,-4.1341,-4.1398,-4.1437,-4.1438,-4.1477,-4.1455,-4.1539,-4.1464,-4.1579,-4.1511,-4.1543,-4.1554,-4.1559,-4.1565,-4.1482,-4.1611,-4.1832,-4.1854,-4.1572,-4.157,-4.1567,0,-4.1093,-4.12,-4.1302,-4.1326,-4.1371,-4.1418,-4.1439,-4.1474,-4.1512,-4.1561,-4.1586,-4.1644,-4.1675,-4.172,-4.1713,-4.166,-4.1829,-4.1755,-4.1832,-4.1832,-4.1868,-4.1866,-4.2097,-4.1892,-4.1891,-4.1891,-4.189,0,-4.1274,-4.1366,-4.1365,-4.1428,-4.1528,-4.1516,-4.1615,-4.163,-4.1661,-4.1724,-4.1692,-4.1752,-4.174,-4.1799,-4.1794,-4.1889,-4.1904,-4.1906,-4.1903,-4.1908,-4.1908,-4.1929,-4.1917,-4.1897,-4.1895,-4.1894,-4.1893,0,-4.1447,-4.1451,-4.1558,-4.1592,-4.1602,-4.1674,-4.1702,-4.176,-4.1765,-4.1846,-4.1864,-4.1872,-4.194,-4.1938,-4.2015,-4.2011,-4.2127,-4.2113,-4.2114,-4.2111,-4.2187,-4.218,-4.2438,-4.2471,-4.2246,-4.2248,-4.225,0,-4.1562,-4.1631,-4.1672,-4.1713,-4.1736,-4.1802,-4.1841,-4.1832,-4.1873,-4.1923,-4.1974,-4.2039,-4.2091,-4.22,-4.2212,-4.227,-4.2256,-4.2343,-4.2265,-4.2267,-4.2256,-4.2251,-4.2257,-4.2358,-4.236,-4.2362,-4.2364,0,-4.1765,-4.1763,-4.1822,-4.1881,-4.1929,-4.1975,-4.2016,-4.2051,-4.2046,-4.2094,-4.2163,-4.2203,-4.2282,-4.2346,-4.2401,-4.242,-4.2391,-4.2389,-4.2409,-4.2414,-4.2412,-4.2413,-4.2155,-4.2383,-4.2381,-4.2379,-4.2378,-4.2378,-4.1912,-4.1971,-4.2008,-4.2074,-4.2105,-4.2145,-4.22,-4.2213,-4.2271,-4.2335,-4.2326,-4.2403,-4.2438,-4.251,-4.2534,-4.2593,-4.2562,-4.2592,-4.2599,-4.2607,-4.2615,-4.2404,-4.2603,-4.2602,-4.2602,-4.2601,-4.2601,0,-4.2112,-4.2134,-4.2195,-4.2255,-4.2306,-4.2275,-4.232,-4.2364,-4.2433,-4.2469,-4.2521,-4.2599,-4.2661,-4.2678,-4.2737,-4.2781,-4.2769,-4.2796,-4.2792,-4.2797,-4.264,-4.2615,-4.2805,-4.2805,-4.2805,-4.2805,-4.2805,-4.2805,-4.2222,-4.232,-4.2322,-4.2435,-4.2456,-4.2532,-4.256,-4.2595,-4.2624,-4.2714,-4.2766,-4.2777,-4.2805,-4.2865,-4.292,-4.2923,-4.2946,-4.2979,-4.2976,-4.2829,-4.2808,-4.2789,-4.2766,-4.2984,-4.2984,-4.3128,-4.313,-4.3131]}]]